Latham, NY

4:00 AM EDT on August 26, 2016 (GMT -0400)
Albany International

Weather History for KALB - August, 2012

Change the Weather History Date:

Thursday, August 23, 2012

  Actual Average Record
Temperature  
Mean Temperature 73 °F 69 °F  
Max Temperature 86 °F 80 °F 94 °F (1947)
Min Temperature 59 °F 59 °F 44 °F (1988)
Degree Days  
Heating Degree Days 0 1  
Month to date heating degree days 2 6  
Since 1 June heating degree days 49 63  
Since 1 July heating degree days 2 11  
Cooling Degree Days 8 5  
Month to date cooling degree days 181 143  
Year to date cooling degree days 702 509  
Since 1 June cooling degree days 624 479  
Growing Degree Days 22 (Base 50)    
Moisture  
Dew Point 58 °F    
Average Humidity 66    
Maximum Humidity 97    
Minimum Humidity 35    
Precipitation  
Precipitation 0.00 in 0.11 in 1.62 in (1890)
Month to date precipitation 1.31 2.67  
Year to date precipitation 21.67 25.36  
Sea Level Pressure  
Sea Level Pressure 30.13 in    
Wind  
Wind Speed 4 mph (SW)    
Max Wind Speed 15 mph    
Max Gust Speed 18 mph    
Visibility 10 miles    
Events Fog    
T = Trace of Precipitation, MM = Missing Value Source: NWS Daily Summary

Daily Weather History Graph

Daily Weather History Graph

Search for Another Location

Airport or City:

Trip Planner

Search our weather history database for the weather conditions in past years. The results will help you decide how hot, cold, wet, or windy it might be!

Date:

Astronomy

Aug. 23, 2012 Rise Set
Actual Time 6:10 AM EDT 7:43 PM EDT
Civil Twilight 5:40 AM EDT 8:13 PM EDT
Nautical Twilight 5:04 AM EDT 8:49 PM EDT
Astronomical Twilight 4:26 AM EDT 9:27 PM EDT
Moon 1:06 PM EDT (8/23) 10:58 PM EDT (8/23)
Length of Visible Light 14h 32m
Length of Day
13h 33m
Waxing Crescent, 40% of the Moon is Illuminated
Aug 23
Waxing Crescent
Aug 24
First Quarter
Aug 31
Full
Sep 8
Last Quarter
Sep 15
New

Hourly Weather History & Observations

Time (EDT) Temp. Heat Index Dew Point Humidity Pressure Visibility Wind Dir Wind Speed Gust Speed Precip Events Conditions
12:51 AM 66.0 °F - 59.0 °F 78% 30.12 in 10.0 mi South 5.8 mph - N/A   Scattered Clouds
1:51 AM 64.9 °F - 60.1 °F 84% 30.12 in 10.0 mi South 4.6 mph - N/A   Partly Cloudy
2:51 AM 64.0 °F - 60.1 °F 87% 30.13 in 10.0 mi South 3.5 mph - N/A   Scattered Clouds
3:51 AM 63.0 °F - 60.1 °F 90% 30.13 in 10.0 mi Calm Calm - N/A   Partly Cloudy
4:51 AM 63.0 °F - 60.1 °F 90% 30.13 in 10.0 mi Calm Calm - N/A   Partly Cloudy
5:51 AM 60.8 °F - 59.0 °F 94% 30.14 in 9.0 mi Calm Calm - N/A   Partly Cloudy
6:51 AM 63.0 °F - 61.0 °F 93% 30.15 in 6.0 mi South 4.6 mph - N/A Fog Scattered Clouds
7:51 AM 66.0 °F - 62.1 °F 87% 30.16 in 9.0 mi South 3.5 mph - N/A Fog Scattered Clouds
8:51 AM 69.1 °F - 61.0 °F 75% 30.17 in 10.0 mi SSW 3.5 mph - N/A   Partly Cloudy
9:51 AM 73.0 °F - 61.0 °F 66% 30.16 in 10.0 mi Calm Calm - N/A   Scattered Clouds
10:51 AM 75.9 °F - 62.1 °F 62% 30.15 in 10.0 mi SE 5.8 mph - N/A   Scattered Clouds
11:51 AM 79.0 °F - 60.1 °F 52% 30.15 in 10.0 mi Variable 3.5 mph - N/A   Scattered Clouds
12:51 PM 82.0 °F 82.1 °F 59.0 °F 45% 30.13 in 10.0 mi West 8.1 mph - N/A   Scattered Clouds
1:51 PM 82.9 °F 82.6 °F 57.9 °F 42% 30.12 in 10.0 mi NNW 5.8 mph - N/A   Scattered Clouds
2:51 PM 86.0 °F 84.7 °F 55.9 °F 36% 30.10 in 10.0 mi Variable 5.8 mph - N/A   Scattered Clouds
3:51 PM 82.9 °F 82.1 °F 55.9 °F 39% 30.10 in 10.0 mi West 9.2 mph - N/A   Mostly Cloudy
4:51 PM 82.9 °F 82.0 °F 55.0 °F 38% 30.09 in 10.0 mi West 3.5 mph - N/A   Scattered Clouds
5:51 PM 82.9 °F 82.0 °F 55.0 °F 38% 30.09 in 10.0 mi NW 10.4 mph - N/A   Scattered Clouds
6:51 PM 81.0 °F 80.4 °F 53.1 °F 38% 30.09 in 10.0 mi NW 9.2 mph - N/A   Scattered Clouds
7:51 PM 75.9 °F - 54.0 °F 46% 30.10 in 10.0 mi West 4.6 mph - N/A   Partly Cloudy
8:51 PM 72.0 °F - 55.9 °F 57% 30.12 in 10.0 mi Calm Calm - N/A   Clear
9:51 PM 68.0 °F - 57.0 °F 68% 30.12 in 10.0 mi Calm Calm - N/A   Clear
10:51 PM 66.0 °F - 57.0 °F 73% 30.13 in 10.0 mi SSW 3.5 mph - N/A   Clear
11:51 PM 64.0 °F - 57.9 °F 80% 30.14 in 10.0 mi Calm Calm - N/A   Clear